Simultaneous Nadir Overpasses (SNOs) Predictions

Prediction of SNOs between GOES-15 and NOAA-20 Satellite Orbit:

Table of predicted SNOs for the next 14.0 days since TLE Epoch: 9/10/2022
Index Date Time (GOES-15) GOES-15 Lat,Lon NOAA-20 Lat,Lon Distance(km) Time Diff (sec)
1 09/10/2022 09:40:06 0.36,-127.74 -0.45,-124.20 403.87 80
2 09/11/2022 22:02:02 -0.35,-127.66 -0.78,-129.50 209.36 80
3 09/12/2022 21:45:58 -0.36,-127.64 0.22,-124.97 304.50 80
4 09/14/2022 10:07:47 0.35,-127.65 0.90,-130.25 296.15 80
5 09/15/2022 09:46:22 0.35,-127.62 -0.10,-125.72 216.72 80
6 09/16/2022 22:08:19 -0.34,-127.52 -1.13,-131.02 398.83 80
7 09/17/2022 21:52:14 -0.34,-127.49 -0.13,-126.49 114.28 80
8 09/19/2022 10:14:02 0.32,-127.50 1.30,-131.76 486.34 80
9 09/20/2022 09:52:38 0.33,-127.46 0.30,-127.23 26.03 80
10 09/22/2022 21:55:51 -0.31,-127.32 -0.46,-128.01 79.06 80
11 09/23/2022 21:39:46 -0.32,-127.28 0.54,-123.48 433.64 80
